Location: Famechon
(49.7599°N, 2.0615°E)
Time: 23:59:07
(UTC+00:00)

DELTA 2 DEB (DPAF) - Pass Details

Date: 03 February 2023
Orbit: 624 x 629 km, 98.4° (Epoch: 01 April)

Event Time Altitude Azimuth Distance (km) Brightness Sun altitude
Rises 17:52:55 0° 13° (NNE) 2,929 7.3 -10.5°
Reaches altitude 10° 17:55:07 10° 11° (NNE) 2,019 6.5 -10.8°
Maximum altitude 17:59:29 75° 288° (WNW) 659 4.3 -11.5°
Drops below altitude 10° 18:03:52 10° 203° (SSW) 2,010 7.2 -12.2°
Sets 18:06:03 0° 201° (SSW) 2,916 8.0 -12.5°
